Temperature
23 24 25 26 26 27 27 26 27 28 28 27 28 28 28 27 27 27 27 27 26 24 22 21 19 18 17 17 17 17 18 18 17 17 17 16 16 15 15 15 15 14 14 14
23 24 26 26 26 25 25 25 26 27 27 26 27 27 28 27 27 26 26 26 25 24 20 18 17 17 17 17 17 17 17 17 17 16 16 16 15 15 14 14 14 13 13 13
24 26 26 25 24 24 25 25 26 26 27 26 26 26 28 27 25 25 24 25 25 23 19 17 16 16 16 16 16 16 16 16 16 16 15 15 14 14 13 13 13 13 12 12
25 26 24 24 24 24 24 26 25 25 25 26 27 26 28 28 26 25 24 24 24 22 20 17 16 15 15 15 15 15 15 15 15 15 14 14 14 13 13 12 12 12 12 11
25 25 24 24 25 25 25 26 25 25 25 25 26 25 27 28 26 27 26 24 23 22 19 16 15 15 15 15 14 14 14 14 13 13 13 13 13 12 12 12 11 10 9 9
26 26 25 25 26 26 25 25 24 25 25 24 25 25 26 28 27 28 28 25 22 21 17 15 14 14 14 14 13 13 13 13 13 13 12 12 12 12 12 11 10 9 8 7
24 25 25 25 25 25 25 24 23 24 24 24 26 25 26 28 28 28 27 25 21 18 16 14 13 13 13 13 13 13 12 12 12 12 12 12 12 11 10 9 8 8 7 7
24 24 25 25 25 25 24 24 23 23 24 25 26 25 27 28 27 25 25 23 20 17 15 13 13 13 13 13 12 12 12 12 11 11 11 12 11 10 9 8 8 7 6 6
25 25 26 26 26 26 25 25 25 24 24 23 25 26 27 27 26 26 24 23 20 17 14 13 13 13 13 12 12 11 11 11 11 11 11 11 10 9 8 7 7 6 5 5
24 24 25 25 25 25 26 26 25 23 22 22 24 25 26 26 27 27 25 23 20 16 14 12 12 12 12 11 11 10 10 10 10 10 10 9 9 8 7 6 5 5 5 4
23 23 24 24 24 25 24 24 24 24 24 23 23 25 27 26 26 26 25 23 20 16 13 12 11 11 11 10 10 10 9 9 9 9 9 9 8 7 6 5 5 5 4 4
21 22 23 24 25 24 25 25 24 23 23 24 23 24 26 25 25 24 24 22 19 16 13 12 11 10 10 9 9 9 9 9 9 9 9 8 7 6 5 5 5 4 4 4
20 21 21 23 23 23 23 23 24 24 23 23 23 24 25 24 24 23 22 21 18 15 13 12 10 9 9 9 9 8 8 8 8 8 7 7 5 5 5 5 4 4 4 4
18 20 21 21 22 22 22 22 22 22 23 23 23 24 25 24 24 23 22 20 17 14 12 11 10 9 9 8 8 8 8 8 8 7 6 6 5 5 5 5 4 4 4 4
19 20 20 20 20 20 20 21 21 21 21 22 22 23 24 24 23 22 21 19 17 14 12 11 10 9 8 8 8 7 8 8 7 6 6 5 5 5 5 4 4 4 4 4
18 18 18 19 20 20 20 20 21 21 21 21 21 22 23 21 20 20 19 18 16 14 12 11 10 8 8 7 7 7 7 7 6 6 5 5 5 5 5 5 4 4 4 4
18 17 17 18 19 18 18 20 20 20 20 20 20 20 18 19 19 18 18 17 16 13 11 10 9 8 7 7 7 6 6 6 5 5 5 5 5 5 5 5 4 4 3 3
16 16 17 17 17 15 18 17 17 17 18 17 16 16 16 16 16 15 15 15 14 12 10 9 7 7 6 6 6 6 5 5 5 5 5 5 5 5 4 4 3 3 2 1
14 15 16 16 16 17 18 15 15 15 16 16 15 15 15 14 15 15 12 12 11 10 9 7 6 6 5 5 5 5 5 5 5 5 5 5 5 4 3 3 2 1 1 0
14 14 15 15 14 15 16 14 14 15 16 15 14 14 14 14 15 13 10 9 8 8 7 6 5 5 4 4 4 4 5 5 5 5 4 4 4 3 2 2 1 0 0 -0
14 14 14 14 14 15 14 14 15 15 15 13 12 12 12 13 11 9 8 7 7 6 5 5 4 4 4 4 4 4 4 4 4 4 4 3 3 2 1 0 -0 -0 -0 -1
14 14 14 14 13 13 13 13 13 13 11 11 11 11 10 9 8 7 6 5 5 4 4 4 3 3 3 3 4 4 4 4 4 3 3 2 2 1 1 -0 -1 -1 -1 -1
13 13 14 13 14 13 12 11 10 9 9 9 9 9 8 7 6 5 4 4 3 3 3 3 3 3 3 3 3 4 3 3 3 3 2 1 1 0 -0 -0 -0 -1 -1 -1
13 12 12 12 13 12 10 9 8 8 7 7 7 7 7 5 5 4 3 3 3 3 3 3 3 3 3 4 4 4 3 3 3 2 2 1 1 1 -0 -1 -1 -1 -2 -2
12 12 11 11 11 10 9 7 6 6 6 6 5 5 5 4 3 3 3 2 2 3 3 3 4 4 4 4 4 3 3 3 2 2 1 1 1 0 -0 -1 -2 -2 -2 -2
11 11 10 9 9 8 7 6 6 5 5 5 4 4 4 4 3 3 3 3 3 3 4 4 4 4 4 4 3 3 3 2 2 2 2 2 1 0 -0 -1 -1 -2 -2 -2
Wind_Speed
11 12 16 17 18 16 10 11 15 14 6 9 12 12 8 5 8 11 13 14 16 17 15 13 12 11 11 11 12 12 13 12 10 8 8 7 7 7 7 8 9 8 7 7
10 16 17 12 12 14 15 15 16 14 8 9 13 14 12 9 11 11 13 14 15 15 13 11 12 11 12 12 12 12 13 12 10 8 7 6 7 6 7 7 8 7 7 6
18 6 10 13 13 15 17 17 17 15 12 12 13 19 19 13 12 12 13 15 16 17 17 14 13 12 12 12 12 11 12 12 12 12 9 9 7 6 6 6 5 5 5 5
16 14 8 13 16 16 16 15 15 15 16 16 13 17 19 15 13 15 16 16 17 17 17 15 14 13 12 12 11 12 12 11 11 11 11 10 7 6 5 4 4 4 4 3
13 14 16 16 16 15 15 11 13 15 16 18 15 15 17 12 14 17 19 18 16 16 15 14 14 14 13 13 12 12 13 12 11 10 10 9 7 7 6 4 4 1 2 3
17 9 12 15 14 14 12 9 11 13 14 20 19 18 18 14 14 15 15 16 15 14 13 13 13 14 14 13 13 13 13 12 11 10 9 9 9 7 6 3 2 0 1 1
20 17 13 10 11 10 12 12 10 11 13 17 15 14 15 12 12 12 10 12 14 14 15 15 16 15 15 15 14 14 14 13 11 10 10 9 8 7 5 2 1 2 2 2
19 17 19 16 19 15 15 17 13 12 13 12 8 11 9 5 6 8 8 10 15 16 16 17 18 17 17 16 15 14 14 13 11 10 9 8 7 4 4 3 2 1 3 3
11 14 11 15 18 20 20 19 19 18 19 17 15 14 10 10 13 12 10 12 16 17 17 18 18 18 18 17 15 14 13 12 10 10 9 8 6 5 4 2 1 2 2 3
10 10 9 9 10 15 18 16 12 15 16 19 19 18 15 11 10 10 12 14 17 18 18 18 18 18 17 16 13 12 12 11 10 9 7 6 6 4 3 1 1 2 3 4
9 11 12 10 13 16 15 16 14 14 15 17 18 13 5 4 5 7 9 14 17 19 19 18 17 17 17 16 14 12 11 11 10 9 7 6 5 3 1 1 2 3 4 5
2 7 13 13 6 5 12 16 17 16 17 17 17 16 2 1 4 6 7 10 15 18 18 18 18 18 17 16 14 13 12 11 9 8 7 5 3 1 2 2 3 4 6 7
2 4 9 11 9 7 8 8 10 13 14 15 17 15 3 1 2 4 5 8 13 17 18 18 18 18 18 16 14 13 12 10 9 7 6 4 2 1 2 4 5 6 8 9
3 5 8 11 5 1 4 6 6 10 14 17 17 16 8 5 6 6 5 8 13 16 17 17 17 17 17 15 13 12 11 9 8 6 4 3 1 1 3 5 6 8 9 11
4 7 8 9 8 9 11 12 12 13 15 17 18 17 15 13 11 11 8 9 14 16 17 17 17 16 16 14 12 11 10 8 6 5 3 2 1 2 4 6 8 9 10 11
2 6 8 12 12 13 17 18 18 19 19 21 21 22 14 11 10 10 9 9 13 15 15 15 14 15 14 13 12 10 9 7 5 3 1 1 1 4 6 7 7 8 8 9
4 5 10 13 11 12 17 13 12 14 15 17 18 12 13 13 12 11 10 9 11 12 13 13 14 14 13 12 11 9 8 6 4 2 0 1 3 5 6 6 6 7 7 7
6 7 7 10 8 12 0 6 6 8 6 4 6 9 12 13 11 9 9 6 5 10 13 14 15 15 13 12 10 8 7 5 3 1 1 3 4 4 4 5 6 6 7 7
6 8 7 7 10 10 4 5 7 7 7 3 7 11 13 13 8 4 10 7 6 11 15 15 16 15 13 11 9 8 7 4 2 1 3 4 4 4 4 5 6 7 8 8
4 7 8 8 8 6 3 7 9 8 9 5 9 13 15 13 8 5 10 12 16 17 17 17 16 14 12 9 7 8 5 3 3 3 4 5 5 5 5 5 6 7 7 8
7 6 9 9 9 6 6 9 10 8 5 13 16 16 13 9 5 6 12 15 16 18 18 17 15 12 9 8 7 7 5 4 4 4 5 5 5 4 5 5 6 7 7 7
5 5 6 6 8 4 9 11 8 12 19 20 18 14 7 2 8 12 15 16 18 18 17 15 13 11 9 8 7 6 6 5 5 5 5 5 4 4 5 5 6 6 8 8
3 3 4 4 4 7 10 10 13 15 17 16 13 6 3 9 13 16 17 17 17 16 14 12 13 12 9 7 6 7 6 5 5 5 5 4 4 4 5 5 6 6 7 8
3 1 5 6 5 8 9 11 11 11 10 8 3 5 11 16 17 18 17 16 15 14 13 12 12 12 9 8 8 8 7 5 5 5 4 4 4 5 5 5 6 6 7 8
3 3 5 7 7 6 7 10 10 9 9 11 13 15 17 19 19 19 17 15 14 12 12 10 10 11 10 10 10 9 7 5 6 5 4 4 5 5 4 6 6 7 7 7
2 4 4 3 4 4 5 8 9 11 12 14 16 17 17 18 19 19 16 15 14 12 10 10 11 11 11 11 10 9 7 6 5 5 5 5 5 6 6 6 4 1 3 4
Wind_Direction
190 211 218 219 223 246 260 255 245 238 238 257 246 244 238 237 238 234 226 219 212 206 193 181 171 166 165 162 157 152 146 139 136 131 129 125 117 112 102 92 85 79 71 64
197 225 229 229 224 233 239 243 246 245 236 259 257 252 247 241 242 242 237 227 219 202 180 171 168 167 167 161 154 149 146 142 136 127 118 117 118 110 101 95 85 78 73 63
219 234 217 213 213 223 233 241 249 254 255 249 263 257 244 233 236 239 239 234 223 207 192 182 177 170 161 155 151 147 142 139 133 132 127 130 127 130 123 112 101 84 82 78
233 228 197 211 222 225 238 239 251 258 260 260 249 267 255 228 226 233 233 227 221 208 198 186 177 163 153 143 136 136 133 134 135 141 145 150 146 139 127 127 110 107 83 60
222 224 217 224 229 227 245 256 249 254 260 265 252 258 264 233 241 241 232 225 218 204 192 181 170 152 142 137 134 133 132 132 133 134 135 136 129 124 128 122 109 98 81 39
239 220 226 235 237 231 238 243 248 250 254 255 252 255 262 240 239 251 236 217 210 194 175 161 148 140 136 134 133 134 132 130 131 130 129 123 120 120 119 114 104 286 11 357
229 223 218 225 219 206 218 229 239 239 233 250 247 249 262 263 250 255 248 210 196 182 166 156 150 146 143 142 140 140 137 132 131 127 120 118 118 120 119 108 97 322 319 318
221 227 218 219 228 229 218 228 244 260 262 264 233 244 263 255 258 260 247 210 186 179 171 165 161 156 152 149 147 145 140 135 134 128 122 119 124 116 102 85 12 329 319 330
231 233 217 219 227 236 239 236 246 259 269 275 269 270 265 249 247 243 228 202 187 180 173 168 164 160 156 153 152 148 141 137 136 131 126 123 113 90 89 103 257 302 303 295
248 243 217 213 224 229 242 246 243 245 256 262 264 261 260 255 253 238 219 204 190 179 174 170 166 162 158 154 149 146 143 140 137 135 131 121 110 103 98 37 348 308 291 291
235 239 233 215 223 231 219 229 234 247 252 263 268 267 288 257 285 271 233 207 190 180 174 171 167 162 156 153 150 149 148 144 141 133 126 117 112 109 110 263 276 281 286 289
229 241 242 232 229 284 241 237 236 246 253 255 266 273 292 248 294 282 252 208 188 177 173 171 165 160 159 158 156 155 154 148 141 134 127 121 123 151 250 267 280 278 278 282
324 239 237 225 211 212 228 236 251 253 261 262 265 273 135 130 311 301 258 206 181 173 171 169 165 164 163 162 159 157 151 143 136 131 129 131 160 223 268 280 281 282 283 284
293 256 260 265 320 350 243 242 254 260 257 264 262 274 273 284 309 311 268 212 182 176 173 171 168 167 163 160 154 149 142 135 130 127 125 132 177 259 278 285 288 288 290 290
306 256 262 278 294 291 281 276 273 270 274 277 279 282 289 306 315 309 279 221 190 181 178 175 170 164 158 151 143 137 128 121 120 121 128 143 196 267 284 293 297 298 299 300
317 271 270 267 268 277 277 273 271 270 272 272 275 276 305 325 319 305 283 234 204 188 178 173 163 153 147 139 133 125 118 116 116 117 136 149 286 294 301 307 311 316 322 328
258 264 267 269 269 281 269 275 277 277 277 281 282 307 340 329 321 315 303 263 218 187 170 159 145 137 129 125 121 118 117 119 123 130 143 323 314 316 324 332 344 351 351 349
262 259 260 265 259 253 6 49 348 301 293 347 353 348 343 334 325 329 328 298 200 163 151 136 127 121 116 112 111 113 116 120 127 130 334 339 339 346 4 13 17 5 354 346
236 240 247 250 253 262 219 58 0 314 279 4 354 351 348 342 313 15 25 35 100 118 116 114 114 113 111 110 114 116 116 121 121 37 14 15 15 27 33 30 16 3 350 346
192 223 239 237 249 255 92 33 342 295 263 52 0 344 341 337 319 26 55 76 90 97 103 107 107 106 105 108 117 115 116 108 68 45 48 54 55 53 45 30 9 2 350 351
196 207 228 241 246 262 49 353 325 270 316 348 332 327 326 327 360 77 86 89 95 100 103 105 105 103 104 107 107 104 95 73 64 73 80 78 75 64 42 24 12 0 357 1
233 231 227 238 247 252 22 344 323 311 317 313 313 314 319 54 96 99 98 99 101 102 103 104 103 100 99 101 102 93 77 79 86 92 92 83 61 36 32 19 10 8 0 0
235 290 296 271 294 352 347 330 316 310 304 304 303 300 145 119 109 105 102 101 101 103 105 106 108 108 105 102 95 90 88 94 99 96 87 72 53 36 20 9 13 15 14 5
192 239 271 276 293 337 345 344 341 337 330 336 2 107 118 114 109 105 103 103 105 109 114 118 116 114 111 104 92 90 93 94 92 84 73 59 38 37 41 20 26 22 16 8
292 276 272 277 305 329 4 9 9 25 49 68 82 95 105 108 107 108 108 111 116 121 124 122 117 112 105 98 90 87 86 84 80 74 63 49 46 42 43 50 34 22 35 15
298 299 290 306 342 342 14 37 54 70 75 84 94 97 101 107 111 113 115 119 122 125 127 124 119 112 106 99 90 80 71 66 69 71 57 46 43 42 39 37 51 112 9 349
Height
1501 1501 1497 1494 1495 1493 1493 1496 1494 1489 1491 1496 1493 1491 1491 1495 1496 1495 1496 1497 1501 1505 1509 1512 1515 1517 1520 1523 1525 1528 1531 1534 1537 1540 1542 1544 1544 1545 1545 1546 1546 1546 1546 1546
1498 1495 1489 1490 1493 1497 1498 1501 1497 1493 1494 1497 1492 1491 1488 1492 1493 1493 1493 1495 1497 1501 1504 1506 1509 1513 1515 1518 1521 1524 1527 1530 1533 1537 1540 1541 1542 1542 1543 1543 1543 1543 1543 1543
1489 1483 1485 1491 1495 1499 1497 1497 1494 1492 1488 1491 1494 1491 1484 1485 1490 1491 1491 1491 1492 1496 1500 1503 1506 1508 1511 1514 1517 1520 1523 1526 1529 1532 1536 1538 1539 1540 1540 1540 1540 1540 1540 1539
1484 1482 1487 1491 1491 1492 1494 1489 1491 1492 1493 1488 1485 1491 1476 1473 1482 1485 1485 1486 1487 1491 1495 1499 1502 1504 1506 1509 1513 1516 1520 1523 1526 1528 1531 1534 1536 1537 1538 1538 1537 1537 1536 1535
1479 1478 1483 1487 1485 1486 1486 1483 1487 1488 1489 1489 1484 1491 1479 1469 1477 1475 1476 1478 1482 1486 1491 1495 1498 1499 1502 1506 1510 1514 1517 1521 1523 1526 1529 1531 1533 1534 1535 1535 1534 1534 1533 1532
1473 1475 1478 1478 1478 1481 1482 1486 1487 1486 1485 1492 1482 1484 1477 1464 1468 1466 1465 1472 1478 1483 1488 1492 1494 1496 1499 1503 1507 1511 1515 1518 1521 1524 1527 1529 1530 1531 1531 1532 1532 1532 1532 1530
1475 1473 1475 1476 1477 1480 1482 1489 1493 1490 1486 1481 1466 1474 1470 1457 1458 1460 1462 1468 1475 1481 1484 1487 1490 1493 1496 1500 1504 1509 1513 1516 1519 1522 1524 1526 1527 1527 1528 1529 1529 1529 1530 1529
1471 1472 1467 1470 1473 1474 1477 1481 1490 1491 1482 1469 1463 1472 1461 1456 1460 1462 1464 1467 1472 1477 1481 1483 1487 1490 1494 1498 1503 1507 1510 1514 1517 1520 1522 1523 1524 1525 1526 1525 1526 1526 1527 1527
1461 1464 1457 1461 1464 1467 1471 1471 1469 1476 1477 1481 1470 1460 1454 1456 1457 1459 1461 1464 1469 1474 1478 1481 1485 1489 1492 1496 1501 1505 1509 1512 1516 1518 1519 1520 1521 1522 1522 1522 1523 1525 1524 1524
1459 1465 1458 1459 1462 1462 1462 1461 1467 1475 1486 1486 1472 1464 1456 1450 1449 1451 1456 1461 1466 1471 1475 1479 1483 1487 1491 1495 1499 1504 1508 1511 1513 1515 1517 1518 1519 1520 1520 1521 1522 1522 1522 1521
1463 1466 1460 1460 1461 1458 1462 1464 1465 1464 1464 1473 1474 1462 1442 1445 1448 1450 1451 1456 1462 1468 1473 1477 1481 1485 1489 1493 1498 1502 1506 1509 1511 1514 1515 1516 1517 1518 1519 1520 1521 1520 1520 1519
1465 1462 1459 1454 1452 1456 1453 1455 1458 1467 1466 1462 1465 1459 1442 1446 1450 1451 1452 1455 1460 1466 1471 1476 1480 1483 1487 1492 1496 1501 1505 1507 1510 1512 1513 1514 1515 1516 1517 1519 1519 1518 1517 1517
1468 1467 1467 1462 1462 1458 1456 1456 1455 1456 1458 1460 1462 1455 1445 1447 1450 1452 1454 1456 1461 1466 1470 1475 1478 1482 1486 1491 1495 1499 1503 1506 1508 1509 1511 1512 1514 1515 1516 1517 1517 1516 1515 1514
1473 1467 1467 1466 1460 1460 1461 1460 1459 1460 1458 1455 1452 1449 1443 1445 1449 1452 1454 1457 1461 1465 1469 1473 1476 1481 1485 1490 1494 1498 1501 1503 1506 1508 1510 1511 1513 1514 1515 1515 1515 1514 1513 1511
1472 1468 1466 1465 1465 1465 1465 1463 1461 1462 1459 1459 1452 1449 1446 1446 1450 1453 1454 1456 1459 1463 1468 1472 1476 1480 1484 1489 1493 1497 1499 1502 1504 1507 1509 1511 1512 1513 1513 1513 1512 1511 1509 1507
1474 1472 1471 1471 1466 1466 1465 1461 1460 1459 1458 1456 1453 1451 1450 1453 1454 1454 1454 1455 1458 1462 1467 1472 1476 1480 1483 1487 1491 1495 1498 1500 1504 1507 1509 1510 1511 1512 1511 1511 1509 1508 1506 1503
1473 1475 1475 1472 1465 1469 1466 1457 1458 1457 1454 1454 1454 1455 1459 1456 1456 1456 1455 1455 1457 1461 1466 1471 1474 1478 1482 1487 1491 1494 1496 1500 1504 1507 1509 1510 1510 1510 1509 1508 1506 1504 1501 1498
1479 1478 1474 1471 1473 1480 1462 1467 1467 1465 1462 1464 1465 1465 1464 1462 1460 1458 1457 1456 1457 1461 1465 1469 1473 1477 1482 1486 1490 1494 1497 1501 1505 1507 1509 1509 1509 1508 1507 1505 1503 1501 1498 1495
1480 1479 1475 1472 1470 1463 1461 1469 1472 1470 1463 1467 1468 1467 1465 1463 1459 1458 1460 1458 1459 1461 1465 1469 1473 1478 1483 1487 1491 1495 1499 1503 1506 1507 1508 1508 1507 1507 1505 1503 1500 1498 1495 1493
1480 1479 1476 1473 1477 1471 1466 1473 1473 1470 1463 1467 1469 1468 1466 1463 1458 1461 1464 1463 1463 1464 1467 1471 1476 1481 1485 1489 1493 1498 1502 1504 1506 1507 1507 1506 1506 1505 1503 1501 1498 1496 1494 1491
1475 1476 1475 1474 1475 1465 1473 1474 1471 1470 1462 1469 1469 1468 1467 1466 1467 1469 1468 1468 1468 1470 1473 1477 1481 1485 1489 1493 1498 1501 1504 1505 1506 1506 1506 1505 1504 1503 1501 1499 1497 1495 1493 1490
1472 1472 1472 1473 1474 1474 1476 1474 1475 1472 1471 1469 1468 1467 1467 1468 1468 1469 1470 1472 1474 1476 1479 1483 1486 1490 1494 1498 1501 1503 1505 1505 1505 1506 1505 1505 1504 1503 1501 1499 1497 1495 1492 1490
1475 1475 1472 1473 1474 1475 1477 1479 1478 1475 1471 1467 1465 1465 1466 1468 1470 1472 1474 1477 1480 1483 1486 1489 1492 1495 1499 1502 1504 1505 1506 1506 1506 1506 1506 1505 1503 1502 1500 1499 1498 1495 1492 1490
1476 1480 1478 1476 1473 1477 1479 1478 1476 1473 1469 1465 1463 1464 1465 1468 1472 1475 1479 1482 1486 1489 1492 1495 1498 1501 1504 1506 1507 1507 1508 1508 1508 1507 1506 1505 1504 1503 1501 1499 1498 1495 1493 1490
1477 1478 1477 1477 1478 1479 1479 1479 1476 1473 1470 1467 1466 1467 1469 1472 1476 1480 1484 1488 1492 1495 1498 1501 1503 1505 1508 1509 1510 1510 1510 1510 1509 1508 1507 1506 1505 1504 1502 1500 1498 1496 1493 1490
1479 1480 1480 1480 1482 1482 1482 1481 1478 1476 1475 1474 1473 1475 1477 1479 1482 1486 1490 1494 1498 1501 1503 1505 1508 1510 1511 1512 1513 1512 1512 1511 1511 1510 1509 1508 1507 1505 1503 1501 1499 1496 1494 1491